www.pogodaiklimat.ru

Погода и климат >> Архив погоды >> Россия >> Оренбургская область >> Зерносовхоз Озерный


ПОГОДА в Зерносовхозе Озерном

  • Прогноз погоды в Зерносовхозе Озерном
  • Монитор погоды в Зерносовхозе Озерном

АРХИВ ПОГОДЫ в Зерносовхозе Озерном

Время (UTC), дата Ветер
(напр.,м/с)
 
Видим.   Явления Облачность Т
(С)
Тd
(С)
f
(%)
Тe
(С)
Тes
(С)
Комфортность P
(гПа)
Po
(гПа)
Тmin
(С)
Tmax
(С)
R
(мм)
R24
(мм)
S
(см)
09 9.07 СЗ 5
{11}
20 км ясно +29.6 +9.2 28 +29 +38 жарко 1007.7 973.0
12 9.07 СЗ 6
{11}
20 км ясно +30.4 +8.7 26 +30 +33 жарко 1007.4 972.9
15 9.07 С 2 20 км ясно +28.8 +9.5 30 +29 +29 жарко 1007.9 973.1 +30.8
18 9.07 В 3 10 км ясно +20.7 +7.3 42 +22 +22 комфорт 1010.1 974.3
21 9.07 ЮВ 3 10 км ясно +17.7 +6.8 49 +18 +18 1010.5 974.3
00 10.07 ЮВ 2 20 км ясно +15.5 +6.4 55 +16 +16 1010.4 973.9
03 10.07 ЮВ 3 20 км 3/0
[Ci sp]
+23.6 +9.2 40 +24 +28 комфорт 1009.2 973.8 +14.8
06 10.07 Ю 6 20 км 9/0
[Ci fib]
+31.5 +8.1 23 +30 +35 жарко 1007.2 972.7
09 10.07 Ю 5
{11}
20 км 9/9 660 м
[Cu hum]
+33.3 +5.9 18 +31 +32 жарко 1005.6 971.4
12 10.07 Ю 3
{11}
20 км 9/9 660 м
[Cu med, cong]
+32.5 +7.1 21 +31 +32 жарко 1004.4 970.1
15 10.07 В 1 20 км 10/10 630 м
[Sc]
+29.4 +7.8 26 +29 +29 жарко 1004.2 969.6 +35.2
18 10.07 ЮВ 7-11
{11}
10 км 10/10 660 м
[Sc]
+28.4 +6.3 25 +27 +27 жарко 1003.8 969.1
21 10.07 Ю 3
{11}
10 км 10/10 660 м
[Sc]
+25.4 +7.6 32 +25 +25 комфорт 1005.2 970.1
00 11.07 штиль 0 20 км 10/10 630 м
[Sc]
+21.8 +10.5 49 +24 +24 комфорт 1006.8 971.2
03 11.07 СЗ 2 20 км 10/10 700 м
[Sc]
+24.1 +14.0 53 +26 +26 жарко 1007.3 972.1 +20.8
06 11.07 Ю 2 20 км 10/10 660 м
[Sc]
+26.1 +14.7 49 +29 +29 жарко 1006.6 971.6
09 11.07 Ю 3 20 км 9/9 630 м
[Sc]
+29.4 +12.3 35 +30 +32 жарко 1006.8 972.2
12 11.07 ЮВ 2 20 км 9/9 660 м
[Cu hum]
+31.8 +10.7 27 +32 +32 жарко 1005.6 971.3
15 11.07 С 5
{11}
20 км 9/9 630 м
[Cu hum]
+28.1 +14.4 43 +30 +30 жарко 1006.7 972.0 +32.0
18 11.07 С 3 10 км 4/4 600 м
[Sc]
+20.2 +14.2 68 +23 +23 комфорт 1008.5 972.8
21 11.07 С 4 10 км ясно +17.6 +13.7 78 +17 +17 1009.3 973.3
00 12.07 С 3 20 км ясно +17.0 +12.8 76 +17 +17 1009.3 973.1
03 12.07 С 4 20 км ясно +23.6 +14.0 55 +26 +29 жарко 1008.7 973.4 +16.5
06 12.07 В 3 20 км ясно +31.3 +9.5 26 +31 +43 жарко 1007.7 973.0
09 12.07 В 3 20 км 8/8 720 м
[Cu hum]
+36.8 +4.6 14 +34 +37 очень
жарко
1005.9 972.0
12 12.07 В 3
{11}
20 км 9/9 660 м
[Cu hum]
+37.7 +4.3 13 +35 +35 очень
жарко
1004.6 970.9
15 12.07 В 2 20 км ясно +35.9 +5.0 15 +33 +34 жарко 1004.5 970.6 +38.0
18 12.07 СВ 1 10 км ясно +22.8 +6.8 36 +24 +24 комфорт 1006.2 970.8
21 12.07 В 4
{10}
10 км ясно +25.9 +5.6 27 +25 +25 комфорт 1006.5 971.5
00 13.07 ЮВ 3 20 км ясно +21.3 +6.1 37 +22 +22 комфорт 1007.1 971.5
03 13.07 ЮВ 3 20 км 4/0
[Cc]
+27.5 +7.4 28 +27 +30 жарко 1006.8 971.9 +20.2
06 13.07 ЮВ 4 20 км ясно +35.2 +6.0 16 +33 +42 жарко 1005.6 971.6
09 13.07 ЮВ 4 20 км ясно +38.2 +4.4 12 +35 +46 очень
жарко
1004.7 971.1
12 13.07 ЮВ 3 20 км 9/9 660 м
[Cu hum]
+38.2 +4.2 12 +35 +36 очень
жарко
1004.1 970.5
15 13.07 В 4 20 км 6/0
[Ci fib]
+35.7 +4.7 15 +33 +33 жарко 1004.3 970.4 +38.7
18 13.07 ЮВ 4 10 км 9/0
[Ci fib]
+27.0 +5.5 25 +26 +26 жарко 1006.7 971.7
21 13.07 В 4 10 км ясно +23.4 +4.2 29 +23 +23 комфорт 1006.8 971.4
00 14.07 ЮВ 2 20 км ясно +19.9 +5.6 39 +21 +21 комфорт 1007.4 971.6
03 14.07 В 3 20 км 4/0
[Ci fib]
+25.7 +7.0 30 +26 +29 жарко 1006.4 971.4 +18.8
06 14.07 ЮВ 3 20 км ясно +33.8 +6.1 18 +32 +43 жарко 1005.0 970.9
09 14.07 Ю 1 20 км 9/9 660 м
[Cu hum]
+34.7 +3.6 14 +32 +34 жарко 1004.3 970.3
12 14.07 Ю 2 20 км 9/9 660 м
[Cu hum]
+36.3 +4.5 14 +33 +34 жарко 1003.0 969.2
15 14.07 Ю 1 20 км 9/0
[Ci sp]
+34.2 +10.4 23 +33 +34 жарко 1002.9 968.9 +37.5
18 14.07 ЮВ 3 10 км 9/0
[Ci sp]
+26.3 +3.9 24 +25 +25 комфорт 1003.4 968.6
21 14.07 В 5 10 км 9/0
[Cc]
+24.0 +4.9 29 +24 +24 комфорт 1002.5 967.3
00 15.07 В 4 20 км 9/0
[Ac lent]
+23.6 +7.1 35 +24 +24 комфорт 1001.2 966.0
03 15.07 ЮВ 5 20 км 9/9 660 м
[Sc diur, vesp]
+27.1 +6.6 27 +26 +27 жарко 999.1 964.4 +22.9
06 15.07 ЮЗ 7
{10}
20 км 3/0
[Ci fib]
+33.1 +9.4 23 +32 +36 жарко 998.3 964.3
09 15.07 ЮЗ 6-11
{11}
20 км ясно +32.7 +11.0 27 +33 +39 жарко 999.4 965.4
12 15.07 З 8-14
{15}
20 км ясно +29.5 +10.9 32 +30 +31 жарко 1001.5 967.0
15 15.07 З 8-12
{14}
20 км ясно +24.5 +10.2 40 +25 +26 комфорт 1004.2 969.1 +33.1
18 15.07 З 4
{12}
10 км ясно +17.8 +9.9 60 +18 +18 1006.8 970.8
21 15.07 З 7
{11}
10 км ясно +15.8 +9.5 66 +14 +14 1007.7 971.5
00 16.07 З 5
{11}
20 км ясно +12.8 +9.6 81 +11 +11 1009.4 972.7
03 16.07 СЗ 10-12
{14}
20 км ясно +18.5 +10.7 60 +18 +18 1010.3 974.2 +12.7

 

Местоположение метеостанции Зерносовхоз Озерный (Оренбургская область, Россия): широта 51.10 долгота 60.87 высота над уровнем моря 312 м.

В архиве по умолчанию представлена погода в Зерносовхозе Озерном за последнюю неделю. Архивные данные за месяц целиком и за предыдущие месяцы, начиная с января 2011 года, Вы можете получить, выбрав интересующий диапазон дат из раскрывающегося списка и нажав кнопку "Ввод!".


*Определитесь, кто Вы:
робот инопланетянин человек

Внимание! Время в таблицах - всемирное. Для получения местного времени необходимо прибавить поправку, которая равна 5 ч.

Смотрите также архив погоды в соседних городах и на ближайших метеорологических станциях:

Погода в Теренсае (Актюбинская область, Казахстан) (56 км)
Погода в Комсомольском (Костанайская область, Казахстан) (81 км)
Погода в Домбаровском (Оренбургская область, Россия) (100 км)
Погода в Айдырля (Оренбургская область, Россия) (117 км)
Погода в Аралколе (Актюбинская область, Казахстан) (128 км)
Погода в Баскудуке (Мангистауская область, Казахстан) (132 км)
Погода в Житикаре (Костанайская область, Казахстан) (137 км)
Погода в Карабутаке (Актюбинская область, Казахстан) (138 км)
Погода в Бредах (Челябинская область, Россия) (152 км)
Погода в Орске (Оренбургская область, Россия) (159 км)

Пояснения к столбцам:

Ветер - указаны скорость ветра в м/с - средняя за 10 мин, порывы в срок и между сроками (в фигурных скобках) и направление, откуда дует ветер: С - северный, СВ - северо-восточный, В - восточный, ЮВ - юго-восточный, Ю - южный, ЮЗ - юго-западный, З - западный, СЗ - северо-западный.
Видимость - горизонтальная дальность видимости в метрах или километрах. При видимости от 1 до 10 км при отсутствии осадков обычно наблюдается дымка, при ухудшении видимости до 1 км и менее - туман. В сухую погоду видимость может ухудшаться дымом, пылью или мглою.
Явления - указаны атмосферные явления, наблюдавшиеся в срок или в последний час перед сроком; фигурными скобками обозначены явления, наблюдавшиеся между сроками (за 1-3 часа до срока); квадратными скобками обозначены град или гололедные отложения с указанием их диаметра в мм.
Облачность - указаны через наклонную черту общая и нижняя облачность в баллах и высота нижней границы облаков в метрах; квадратными скобками обозначены формы облаков: Ci - перистые, Cs - перисто-слоистые, Cc - перисто-кучевые, Ac - высококучевые, As - высокослоистые, Sc - слоисто-кучевые, Ns - слоисто-дождевые, Cu - кучевые, Cb - кучево-дождевые. Подробнее классификацию облаков см. в Атласе облаков (PDF).
T - Температура воздуха - температура, измеренная на высоте 2 м над землей.
Td - Температура точки росы - температура, при понижении до которой содержащийся в воздухе водяной пар достигнет насыщения.
f - Относительная влажность воздуха - влажноcть воздуха, измеренная на высоте 2 м над землей.
Te - Эффективная температура - температура, которую ощущает одетый по сезону человек в тени. Характеристика душности погоды. При расчете учитывается влияние влажности воздуха и скорости ветра на теплоощущения человека.
Tes - Эффективная температура на солнце - температура, которую ощущает человек, с поправкой на солнечный нагрев. Характеристика знойности погоды. Зависит от высоты солнца над горизонтом, облачности и скорости ветра. Ночью, в пасмурную погоду, а также при ветре 12 м/с и более поправка равна нулю.
P - Атмосферное давление - приведенное к уровню моря атмосферное давление.
Po - Атмосферное давление - измеренное на уровне метеостанции атмосферное давление.
Tmin - Минимальная температура - минимум температуры воздуха на высоте 2 м над землей.
Tmax - Максимальная температура - максимум температуры воздуха на высоте 2 м над землей.
R - Количество осадков - Количество выпавших осадков за период времени, мм. При наведении курсора мыши на число - период времени, за который выпало указанное количество осадков.
R24 - Количество осадков - Количество выпавших осадков за 24 часа, мм.
S - Снежный покров - Высота снежного покрова, см. При наведении курсора мыши на число - состояние снежного покрова и степень покрытия местности в баллах.